Wind_Speed
8 8 8 7 7 7 8 9 10 11 12 12 12 12 12 11 11 11 11 10 9 9 9 8 8 7 7 7 7 7 8 8 7 7 8 8 8 8 8 8 8 8 8
8 8 7 7 6 6 7 8 9 11 11 11 11 12 11 11 11 11 10 10 9 9 8 8 7 7 7 6 6 6 7 7 7 7 7 7 7 7 8 8 8 8 8
7 7 7 7 6 6 6 7 9 10 11 11 11 11 11 11 11 10 10 9 9 8 8 7 7 6 6 6 6 6 6 6 6 6 7 6 6 7 7 7 7 7 7
6 6 7 6 6 6 6 7 8 10 10 11 11 10 11 11 10 10 9 9 8 8 7 7 6 6 6 6 6 6 6 5 6 6 6 6 6 6 6 6 6 7 7
5 5 6 6 6 6 7 7 8 9 9 10 10 10 10 10 9 9 8 8 7 7 7 6 6 6 6 5 5 6 6 5 5 5 5 5 5 5 5 5 6 6 6
4 4 5 5 6 6 7 8 8 9 9 9 10 9 9 9 8 8 7 7 7 6 6 6 6 6 5 5 5 5 5 5 5 5 5 5 5 5 5 5 5 5 5
3 3 5 5 6 6 7 8 8 9 9 9 9 9 9 8 7 7 6 6 6 6 5 5 5 5 5 5 5 5 5 5 5 5 4 4 4 4 4 4 4 4 4
1 2 4 6 6 7 7 8 8 8 9 9 9 8 8 8 7 7 6 5 5 5 5 5 5 4 4 4 4 5 5 5 4 4 4 4 4 4 4 4 4 4 4
1 1 3 5 6 7 8 8 9 9 9 9 8 8 8 7 7 6 6 5 4 4 4 4 4 4 4 4 4 4 4 4 4 4 4 3 3 4 4 4 3 3 3
0 1 3 4 6 7 8 9 9 9 9 9 8 8 8 7 7 6 5 5 4 4 4 4 4 3 4 3 4 4 4 3 3 3 3 3 3 3 3 3 3 3 3
2 2 3 4 6 7 8 9 9 9 9 9 8 8 8 7 7 6 5 4 4 3 3 3 3 3 3 3 3 4 3 3 2 3 3 3 3 3 2 3 3 3 3
3 3 4 5 6 7 8 9 9 9 9 9 9 8 8 7 7 6 5 4 4 3 3 3 3 3 3 3 3 3 3 3 3 3 2 2 2 2 3 3 3 3 3
4 4 5 6 7 8 9 9 9 10 10 10 10 9 9 8 7 6 6 5 4 3 3 3 3 2 3 3 3 3 3 2 2 2 2 2 2 2 2 3 3 3 4
5 6 7 8 8 9 9 9 10 10 11 11 11 10 10 9 8 8 7 6 5 4 3 3 2 2 2 2 3 3 3 2 2 2 2 2 2 2 2 2 3 2 3
6 7 7 9 10 10 10 10 10 11 12 12 12 11 11 10 10 9 8 7 6 5 4 3 3 2 2 2 3 3 3 2 1 1 2 2 1 2 2 2 2 2 3
8 7 7 9 10 11 11 12 12 13 13 13 13 12 11 11 11 10 10 9 8 6 5 4 4 3 3 3 3 3 2 1 1 1 1 1 1 1 2 2 2 2 2
8 7 7 9 10 12 13 13 14 14 14 14 14 14 13 12 12 11 11 11 9 8 7 5 5 4 4 3 3 3 3 2 1 1 1 1 1 2 2 2 2 2 2
9 9 9 10 11 11 12 13 14 14 15 16 15 15 15 14 13 12 13 12 11 9 8 7 6 5 5 4 4 3 3 3 2 1 2 2 2 2 2 2 2 2 2
11 11 12 12 13 13 12 13 14 15 15 16 16 17 16 15 14 14 14 14 13 11 9 8 7 7 6 6 5 4 3 3 3 2 2 2 2 2 2 2 2 2 2
12 13 13 13 12 13 14 15 15 15 15 16 17 18 17 17 16 15 15 15 14 12 11 10 9 8 7 7 6 5 4 4 4 3 2 2 2 3 3 2 2 2 2
14 14 14 13 13 13 15 16 16 16 15 16 17 17 18 18 17 15 15 15 15 14 12 12 10 10 9 8 6 5 5 5 5 4 4 4 3 4 4 4 3 3 3
15 15 16 15 13 13 14 16 17 18 17 17 16 17 18 18 18 16 15 15 15 15 14 12 12 11 10 9 8 7 6 6 5 5 5 5 5 4 4 4 5 4 4
15 16 16 15 13 13 14 16 17 18 19 18 18 18 18 20 20 18 17 16 16 16 15 14 14 13 12 11 10 8 7 7 7 7 6 6 6 6 6 6 6 5 5
15 16 16 16 14 14 14 15 16 17 18 18 18 19 19 20 20 20 19 18 17 17 16 16 15 15 13 12 11 10 9 9 8 8 8 8 8 7 7 7 7 7 6
15 16 16 16 15 14 14 15 15 16 18 18 18 18 19 19 20 20 20 19 18 17 17 17 16 16 15 14 13 12 12 11 10 10 10 10 10 9 9 9 9 9 9
15 15 15 14 14 14 14 14 14 15 18 19 18 17 18 19 19 19 19 19 19 18 18 18 18 17 17 16 16 15 14 13 13 12 12 12 12 11 11 11 11 11 11
Wind_Direction
121 118 120 124 130 131 130 127 124 119 115 112 109 105 100 98 96 94 92 89 89 89 89 90 92 93 94 94 95 98 100 101 100 100 99 102 106 105 106 106 110 110 109
128 128 130 135 139 143 142 135 130 124 120 116 112 108 104 100 98 95 92 90 89 90 91 91 93 95 96 99 101 103 103 102 103 104 104 106 106 106 106 107 110 112 113
140 140 140 145 149 153 152 146 138 131 125 120 116 111 107 104 101 97 93 90 90 92 92 91 94 96 100 103 107 110 108 107 107 107 107 108 108 109 109 109 110 114 116
153 153 151 155 160 163 160 154 148 140 132 126 121 116 111 107 103 99 94 92 91 92 92 93 96 96 100 103 108 112 111 111 113 112 111 110 110 112 113 113 113 117 121
164 162 161 166 169 172 170 165 157 149 141 133 126 121 116 111 107 103 98 94 93 93 93 93 95 96 99 103 110 115 115 117 118 119 116 115 115 117 119 120 120 121 125
170 175 172 178 182 182 180 173 165 156 149 141 133 128 122 117 113 109 103 99 97 96 96 95 93 97 98 100 108 117 119 120 120 122 121 123 125 126 125 125 128 131 135
181 190 191 195 196 192 188 181 172 163 156 149 140 136 130 124 120 115 111 106 104 100 98 96 95 97 94 98 108 117 122 123 127 127 128 131 133 136 135 135 136 141 145
190 207 206 204 208 203 196 187 180 172 165 158 150 145 139 132 127 124 119 114 112 106 103 101 97 95 95 99 112 124 127 128 130 135 136 137 141 146 147 148 148 151 155
165 207 210 205 207 205 199 193 186 181 174 166 160 154 150 143 137 133 127 123 120 113 107 106 102 96 92 100 116 126 134 138 141 142 142 144 145 153 158 160 163 169 172
254 229 214 212 211 210 205 200 195 189 182 175 170 166 161 156 149 144 135 131 128 120 114 110 106 100 94 103 119 130 138 141 151 153 154 154 152 156 163 171 178 185 188
283 253 233 224 221 219 215 211 206 199 193 188 182 179 173 169 163 157 148 143 139 132 124 117 111 105 104 118 129 134 137 146 150 148 155 163 165 168 174 185 195 200 203
305 270 247 234 226 222 220 216 213 209 204 200 193 189 185 182 179 175 167 158 155 144 133 129 124 124 123 126 134 144 149 149 150 150 156 172 183 187 193 199 208 209 213
306 284 267 247 237 230 226 227 225 220 214 208 204 199 195 193 194 192 184 177 171 160 152 146 138 143 138 136 140 146 151 160 161 165 169 179 190 200 207 215 226 233 228
302 286 268 253 243 234 228 232 234 227 220 216 213 209 204 203 204 201 198 196 191 182 176 173 163 166 157 151 152 152 153 159 178 191 203 204 214 220 234 243 243 253 244
304 294 274 258 245 235 231 232 237 230 224 222 218 217 215 215 213 209 207 205 203 198 195 193 185 185 183 161 164 167 165 152 161 198 207 222 234 245 258 257 255 256 260
307 297 278 261 247 244 242 240 239 235 232 229 226 225 224 223 221 217 210 210 211 211 211 208 205 199 195 180 174 176 171 157 146 191 204 215 246 265 261 254 260 264 266
311 304 285 263 254 251 247 246 244 238 236 233 231 230 229 227 225 222 213 212 215 217 217 216 210 204 201 190 184 185 188 186 182 191 220 229 248 269 265 259 265 267 265
312 308 298 275 259 252 248 245 243 238 238 236 235 233 233 230 228 226 216 214 214 216 217 220 218 211 207 201 198 195 193 200 194 207 233 246 251 254 253 253 264 267 272
306 304 300 290 267 254 249 247 246 244 241 239 238 237 235 229 226 227 221 216 215 216 217 221 224 219 213 209 206 202 203 205 201 209 227 244 242 242 243 242 255 260 275
306 307 305 295 278 262 252 251 249 246 242 241 239 237 234 229 228 226 223 219 218 218 220 221 224 223 220 215 212 212 218 220 220 223 233 241 246 249 246 246 258 262 271
305 305 308 294 284 268 256 252 248 247 244 240 237 236 232 229 229 225 223 220 220 219 220 223 225 221 221 218 219 222 227 232 235 239 244 250 252 254 253 251 254 266 275
301 301 305 298 285 273 262 256 252 247 244 238 237 236 232 226 225 226 223 221 220 219 221 222 222 222 224 225 227 229 232 237 241 248 255 255 256 258 255 256 258 267 274
298 300 301 299 287 277 268 261 252 245 240 241 239 240 233 230 227 226 221 218 219 219 223 223 224 226 226 228 229 232 238 241 247 254 259 259 261 262 263 263 264 268 273
296 297 298 298 287 276 269 260 254 246 241 240 239 236 231 228 226 225 222 221 223 223 224 225 226 226 228 231 232 234 239 241 247 254 258 257 259 261 263 263 265 265 271
292 296 300 295 285 275 269 264 255 250 243 239 238 236 231 227 227 226 226 224 224 224 224 226 227 228 228 231 235 238 240 243 248 251 255 257 257 260 262 264 265 264 268
292 296 298 293 282 269 264 260 255 249 242 240 238 237 232 228 227 228 229 226 226 227 227 229 229 230 231 233 237 241 244 245 249 251 254 256 258 260 261 263 265 267 269
Height
5892 5893 5893 5894 5895 5895 5896 5896 5896 5896 5896 5897 5897 5897 5898 5898 5898 5898 5898 5898 5899 5898 5898 5898 5898 5898 5899 5898 5898 5898 5898 5898 5898 5898 5898 5898 5898 5898 5897 5897 5897 5897 5897
5893 5893 5894 5895 5896 5896 5897 5897 5897 5897 5897 5898 5898 5898 5899 5899 5899 5899 5899 5899 5899 5899 5899 5899 5900 5900 5900 5899 5899 5899 5899 5899 5899 5899 5899 5899 5899 5899 5899 5898 5899 5898 5898
5894 5894 5894 5895 5896 5897 5897 5898 5898 5898 5898 5898 5899 5899 5899 5900 5900 5900 5900 5900 5900 5900 5900 5900 5900 5900 5900 5900 5900 5900 5900 5900 5900 5900 5900 5900 5900 5900 5900 5900 5900 5900 5900
5894 5894 5895 5896 5897 5897 5898 5898 5898 5898 5899 5899 5899 5900 5900 5900 5901 5901 5901 5901 5901 5901 5901 5901 5901 5901 5901 5901 5901 5901 5901 5901 5901 5901 5901 5901 5901 5901 5901 5901 5901 5901 5901
5894 5895 5895 5896 5897 5898 5898 5898 5899 5899 5899 5899 5900 5900 5901 5901 5901 5901 5902 5902 5902 5902 5902 5902 5902 5901 5901 5901 5901 5901 5902 5902 5902 5902 5902 5902 5902 5902 5902 5903 5903 5903 5903
5894 5895 5895 5896 5897 5897 5898 5898 5899 5899 5899 5900 5900 5901 5901 5902 5902 5902 5902 5902 5902 5902 5902 5902 5902 5902 5902 5902 5902 5902 5902 5902 5903 5903 5903 5903 5903 5903 5903 5904 5904 5904 5904
5894 5895 5895 5896 5897 5897 5898 5898 5899 5899 5900 5900 5901 5901 5902 5902 5902 5903 5903 5903 5903 5903 5903 5903 5902 5902 5902 5902 5902 5902 5903 5903 5903 5903 5903 5903 5904 5904 5904 5904 5905 5905 5905
5893 5894 5894 5895 5896 5897 5898 5898 5899 5899 5900 5900 5901 5901 5902 5902 5903 5903 5903 5903 5903 5903 5903 5903 5903 5903 5903 5903 5903 5903 5903 5903 5904 5904 5904 5904 5904 5904 5905 5905 5905 5905 5905
5893 5893 5894 5895 5895 5896 5897 5898 5898 5899 5900 5900 5901 5901 5902 5902 5903 5903 5903 5903 5903 5903 5903 5903 5903 5903 5903 5903 5903 5903 5903 5904 5904 5904 5904 5904 5904 5905 5905 5905 5905 5906 5906
5892 5893 5893 5894 5895 5895 5896 5897 5898 5899 5899 5900 5901 5901 5902 5902 5902 5903 5903 5903 5903 5903 5903 5903 5903 5903 5903 5903 5904 5904 5904 5904 5904 5904 5904 5905 5905 5905 5905 5905 5905 5906 5906
5892 5892 5893 5893 5894 5895 5895 5896 5897 5898 5898 5899 5900 5901 5901 5902 5902 5902 5903 5903 5903 5903 5903 5904 5904 5904 5904 5904 5904 5904 5904 5904 5904 5904 5904 5905 5905 5905 5905 5905 5905 5905 5905
5891 5891 5892 5892 5893 5893 5894 5895 5895 5896 5897 5898 5899 5900 5900 5901 5902 5902 5902 5903 5903 5903 5903 5903 5903 5903 5903 5904 5904 5904 5904 5904 5904 5904 5904 5905 5905 5905 5905 5905 5905 5905 5905
5891 5891 5891 5891 5891 5892 5893 5893 5894 5895 5896 5897 5898 5899 5900 5900 5901 5901 5902 5902 5903 5903 5903 5903 5903 5903 5903 5904 5904 5904 5904 5904 5904 5904 5904 5904 5905 5905 5904 5904 5905 5904 5904
5890 5889 5889 5889 5889 5890 5891 5892 5893 5894 5894 5896 5896 5898 5898 5899 5900 5901 5901 5902 5902 5903 5903 5903 5903 5903 5903 5903 5903 5904 5904 5904 5904 5904 5904 5904 5905 5904 5904 5904 5904 5904 5904
5888 5887 5887 5887 5887 5888 5889 5890 5891 5892 5893 5894 5895 5896 5897 5898 5899 5899 5900 5901 5901 5902 5902 5903 5903 5903 5903 5903 5903 5903 5904 5904 5904 5904 5904 5904 5904 5904 5904 5904 5904 5904 5904
5887 5885 5885 5885 5885 5886 5887 5888 5889 5890 5891 5892 5893 5894 5895 5896 5897 5898 5899 5900 5901 5901 5902 5902 5902 5902 5903 5903 5903 5903 5904 5904 5904 5904 5904 5904 5904 5904 5904 5904 5903 5903 5903
5885 5884 5883 5883 5883 5883 5884 5885 5886 5887 5888 5889 5891 5892 5893 5894 5895 5896 5897 5898 5899 5900 5901 5901 5902 5902 5902 5902 5903 5903 5903 5904 5904 5904 5904 5903 5903 5903 5903 5903 5903 5903 5903
5884 5883 5882 5881 5880 5880 5881 5882 5883 5884 5886 5887 5888 5890 5891 5892 5893 5894 5895 5896 5898 5899 5900 5900 5901 5901 5902 5902 5903 5903 5903 5903 5903 5903 5903 5903 5903 5903 5903 5903 5903 5903 5902
5882 5881 5879 5878 5878 5878 5878 5879 5880 5882 5883 5884 5886 5887 5888 5890 5891 5892 5893 5895 5896 5897 5898 5899 5900 5901 5901 5902 5902 5902 5903 5903 5903 5903 5903 5903 5903 5903 5903 5902 5902 5902 5902
5880 5878 5877 5875 5875 5875 5875 5876 5877 5879 5880 5881 5883 5884 5885 5887 5888 5889 5891 5892 5894 5895 5897 5898 5899 5900 5900 5901 5901 5902 5902 5903 5903 5903 5903 5903 5902 5902 5902 5902 5902 5901 5901
5877 5875 5874 5872 5872 5871 5872 5873 5873 5875 5876 5877 5879 5881 5882 5883 5885 5886 5888 5890 5892 5893 5895 5896 5897 5898 5899 5900 5901 5901 5901 5902 5902 5902 5902 5902 5902 5902 5901 5901 5901 5901 5901
5874 5872 5871 5869 5867 5867 5868 5868 5869 5871 5873 5874 5876 5877 5878 5880 5882 5884 5886 5887 5889 5891 5893 5894 5895 5896 5898 5899 5899 5900 5900 5901 5901 5901 5901 5902 5901 5901 5901 5901 5901 5900 5900
5871 5869 5867 5865 5864 5864 5864 5864 5865 5867 5869 5870 5872 5873 5875 5877 5879 5881 5883 5885 5887 5889 5890 5892 5893 5894 5896 5897 5898 5899 5899 5900 5900 5900 5900 5900 5900 5900 5900 5900 5900 5900 5899
5867 5865 5863 5862 5861 5860 5860 5860 5861 5862 5864 5866 5867 5869 5871 5872 5875 5877 5879 5882 5884 5886 5888 5889 5891 5892 5894 5895 5896 5897 5898 5898 5898 5899 5899 5899 5899 5899 5899 5899 5899 5899 5898
5863 5862 5859 5858 5857 5856 5856 5856 5857 5858 5860 5862 5863 5865 5867 5869 5871 5874 5876 5878 5881 5883 5885 5887 5888 5890 5891 5893 5894 5895 5895 5896 5896 5897 5897 5897 5897 5897 5897 5897 5897 5897 5897
5860 5857 5855 5854 5853 5853 5853 5853 5853 5855 5856 5858 5860 5861 5863 5865 5867 5870 5872 5875 5877 5880 5882 5884 5885 5887 5889 5890 5891 5892 5893 5893 5894 5894 5895 5895 5895 5895 5895 5895 5895 5895 5895